Date,Time,Wetness (Wet Dry or Ice),Wind Speed (m/s),Temperature (C),Humidity (%),Pressure (mb),Radiation (W/m^2)
2019-11-24,02:20:00,DRY,6.33,6.90,57.3,774.00,1.6
2019-11-24,02:25:00,DRY,5.95,7.05,58.5,774.00,1.1
2019-11-24,02:30:00,DRY,5.30,6.90,58.3,774.00,1.5
2019-11-24,02:35:00,DRY,6.10,6.85,55.5,774.00,1.1
2019-11-24,02:40:00,DRY,4.97,6.87,45.3,774.00,1.3
2019-11-24,02:45:00,DRY,5.90,6.85,51.0,774.00,1.4
2019-11-24,02:50:00,DRY,6.07,6.83,46.0,774.00,1.3
2019-11-24,02:55:00,DRY,5.50,6.80,34.5,774.00,1.5
2019-11-24,03:00:00,DRY,6.00,6.87,43.0,774.00,1.3
2019-11-24,03:05:00,DRY,6.25,7.00,56.5,774.00,1.2
2019-11-24,03:10:00,DRY,6.80,7.20,59.3,774.00,0.8
2019-11-24,03:15:00,DRY,6.20,7.00,53.0,774.00,0.9
2019-11-24,03:20:00,DRY,5.73,6.97,42.3,774.00,1.1
2019-11-24,03:25:00,DRY,5.95,7.10,41.5,774.00,1.2
2019-11-24,03:30:00,DRY,5.80,6.90,39.7,774.00,1.4
2019-11-24,03:35:00,DRY,4.75,6.95,46.0,774.00,1.3
2019-11-24,03:40:00,DRY,5.93,6.83,44.7,774.00,1.4
2019-11-24,03:45:00,DRY,7.05,6.80,50.0,774.00,1.3
2019-11-24,03:50:00,DRY,5.07,6.90,54.0,774.00,1.1
2019-11-24,03:55:00,DRY,6.25,7.30,56.5,774.00,1.2
2019-11-24,04:00:00,DRY,6.97,7.37,61.0,774.00,1.4
2019-11-24,04:05:00,DRY,5.85,7.35,60.5,774.00,1.1
2019-11-24,04:10:00,DRY,7.13,7.57,59.3,774.00,1.3
2019-11-24,04:15:00,DRY,5.65,7.60,59.0,774.00,1.7
2019-11-24,04:20:00,DRY,6.57,7.70,57.7,774.00,1.7
2019-11-24,04:25:00,DRY,6.30,7.50,61.0,774.00,1.8
2019-11-24,04:30:00,DRY,6.67,7.47,60.3,774.00,1.5
2019-11-24,04:35:00,DRY,6.00,7.70,55.5,774.00,2.0
2019-11-24,04:40:00,DRY,6.47,7.70,54.0,774.00,1.0
2019-11-24,04:45:00,DRY,5.95,7.70,52.0,774.00,1.2
2019-11-24,04:50:00,DRY,5.53,7.90,49.0,774.00,1.3
2019-11-24,04:55:00,DRY,5.35,8.10,45.5,774.00,1.0
2019-11-24,05:00:00,DRY,6.67,8.10,45.0,774.00,1.1
2019-11-24,05:05:00,DRY,6.40,8.15,44.5,774.00,1.1
2019-11-24,05:10:00,DRY,5.97,8.27,42.0,774.00,1.1
2019-11-24,05:15:00,DRY,5.90,8.25,43.5,774.00,1.6
2019-11-24,05:20:00,DRY,6.13,8.30,42.0,774.00,0.6
2019-11-24,05:25:00,DRY,5.15,8.50,40.0,774.00,1.1
2019-11-24,05:30:00,DRY,5.30,8.47,38.7,774.00,0.9
2019-11-24,05:35:00,DRY,5.05,8.50,38.0,774.00,1.9
2019-11-24,05:40:00,DRY,3.53,8.50,38.3,774.00,0.7
2019-11-24,05:45:00,DRY,4.60,8.90,32.5,774.00,1.0
2019-11-24,05:50:00,DRY,4.93,9.00,31.3,774.00,1.0
2019-11-24,05:55:00,DRY,5.00,8.85,31.5,774.00,1.5
2019-11-24,06:00:00,DRY,5.47,8.97,29.0,774.00,1.4
2019-11-24,06:05:00,DRY,3.90,8.75,31.0,774.00,1.1
2019-11-24,06:10:00,DRY,5.57,8.90,29.0,774.00,1.4
2019-11-24,06:15:00,DRY,4.75,8.65,31.5,774.00,2.1
2019-11-24,06:20:00,DRY,4.17,8.53,31.3,774.00,1.3
2019-11-24,06:25:00,DRY,5.55,8.90,27.0,774.00,1.2
2019-11-24,06:30:00,DRY,4.07,8.87,26.7,774.00,1.1
2019-11-24,06:35:00,DRY,3.40,9.20,20.5,774.00,1.1
2019-11-24,06:40:00,DRY,1.83,10.03,18.3,774.00,1.6
2019-11-24,06:45:00,DRY,2.35,10.05,16.5,774.00,1.1
2019-11-24,06:50:00,DRY,2.57,10.23,16.0,774.00,1.2
2019-11-24,06:55:00,DRY,0.60,10.00,18.0,774.00,1.6
2019-11-24,07:00:00,DRY,2.93,10.03,18.0,774.00,1.4
2019-11-24,07:05:00,DRY,0.70,10.00,15.5,774.00,1.2
2019-11-24,07:10:00,DRY,1.40,9.90,16.7,774.00,1.5
2019-11-24,07:15:00,DRY,1.75,9.65,19.5,774.00,0.5
2019-11-24,07:20:00,DRY,3.30,9.63,18.0,774.00,1.8
2019-11-24,07:25:00,DRY,3.75,9.65,22.0,774.00,2.8
2019-11-24,07:30:00,DRY,3.53,9.37,21.3,774.67,3.4
2019-11-24,07:35:00,DRY,3.50,9.95,17.5,774.50,5.3
2019-11-24,07:40:00,DRY,2.77,10.77,14.0,774.67,7.2
2019-11-24,07:45:00,DRY,4.45,10.50,14.0,775.00,9.8
2019-11-24,07:50:00,DRY,3.47,10.93,13.3,775.00,11.8
2019-11-24,07:55:00,DRY,5.00,11.35,10.0,775.00,14.8
2019-11-24,08:00:00,DRY,5.57,11.47,10.7,775.00,17.5
2019-11-24,08:05:00,DRY,4.55,11.35,11.0,775.00,19.0
2019-11-24,08:10:00,DRY,4.67,11.17,10.7,775.00,21.8
2019-11-24,08:15:00,DRY,4.90,11.20,11.5,775.00,23.6
2019-11-24,08:20:00,DRY,3.83,11.17,12.0,775.00,94.2
2019-11-24,08:25:00,DRY,4.15,11.10,12.0,775.00,169.2
2019-11-24,08:30:00,DRY,3.90,11.13,11.7,775.00,189.8
2019-11-24,08:35:00,DRY,4.40,11.25,11.0,775.00,210.0
2019-11-24,08:40:00,DRY,3.87,11.30,10.0,775.00,230.2
2019-11-24,08:45:00,DRY,5.15,11.55,9.5,775.00,249.9
2019-11-24,08:50:00,DRY,3.53,12.07,9.0,775.00,270.2
2019-11-24,08:55:00,DRY,4.95,11.95,8.5,775.00,290.0
2019-11-24,09:00:00,DRY,3.23,11.73,8.7,775.00,308.8
2019-11-24,09:05:00,DRY,3.60,11.25,8.5,775.00,330.0
2019-11-24,09:10:00,DRY,4.10,11.50,8.0,775.00,348.7
2019-11-24,09:15:00,DRY,4.00,12.25,6.5,775.00,368.2
2019-11-24,09:20:00,DRY,3.97,12.23,6.3,775.00,387.6
2019-11-24,09:25:00,DRY,3.50,12.25,6.5,775.00,406.9
2019-11-24,09:30:00,DRY,4.23,12.27,7.3,775.00,425.4
2019-11-24,09:35:00,DRY,3.00,12.55,6.0,775.00,444.1
2019-11-24,09:40:00,DRY,4.23,12.63,8.3,775.00,458.5
2019-11-24,09:45:00,DRY,3.05,12.70,7.5,775.00,469.1
2019-11-24,09:50:00,DRY,1.80,12.73,9.7,775.00,495.2
2019-11-24,09:55:00,DRY,2.60,12.70,7.0,775.00,516.1
2019-11-24,10:00:00,DRY,3.63,12.67,6.7,775.00,526.3
2019-11-24,10:05:00,DRY,2.70,12.85,7.0,775.00,538.1
2019-11-24,10:10:00,DRY,2.23,12.90,6.7,775.00,565.2
2019-11-24,10:15:00,DRY,3.90,13.15,7.0,775.00,581.2
2019-11-24,10:20:00,DRY,3.70,13.07,8.3,775.00,600.2
2019-11-24,10:25:00,DRY,2.85,12.85,14.0,775.00,595.8
2019-11-24,10:30:00,DRY,3.50,13.03,8.0,775.00,588.9
2019-11-24,10:35:00,DRY,2.00,13.05,18.0,775.00,611.7
2019-11-24,10:40:00,DRY,2.13,12.93,19.7,775.33,650.6
2019-11-24,10:45:00,DRY,0.50,13.15,22.0,775.00,666.6
2019-11-24,10:50:00,DRY,2.50,12.80,23.0,775.00,663.6
2019-11-24,10:55:00,DRY,2.05,12.75,24.5,775.00,667.7
2019-11-24,11:00:00,DRY,1.60,12.80,21.3,775.00,701.4
2019-11-24,11:05:00,DRY,0.95,13.40,19.5,775.00,721.9
2019-11-24,11:10:00,DRY,2.17,13.43,15.0,775.00,650.2
2019-11-24,11:15:00,DRY,3.00,12.65,21.5,775.00,614.9
2019-11-24,11:20:00,DRY,3.77,12.77,15.7,775.00,736.9
2019-11-24,11:25:00,DRY,4.05,12.90,16.5,775.00,748.8
2019-11-24,11:30:00,DRY,3.37,12.97,15.0,775.00,706.1
2019-11-24,11:35:00,DRY,2.55,13.00,19.5,775.00,588.3
2019-11-24,11:40:00,DRY,3.07,12.97,17.3,775.00,635.5
2019-11-24,11:45:00,DRY,1.20,13.15,14.5,775.00,622.5
2019-11-24,11:50:00,DRY,3.87,13.23,16.3,775.00,751.1
2019-11-24,11:55:00,DRY,2.30,13.35,17.0,775.00,732.3
2019-11-24,12:00:00,DRY,2.63,13.60,19.7,775.00,782.8
2019-11-24,12:05:00,DRY,2.80,13.65,23.5,775.00,809.5
2019-11-24,12:10:00,DRY,2.53,13.60,24.7,775.00,811.6
2019-11-24,12:15:00,DRY,1.75,13.35,25.0,775.00,813.2
2019-11-24,12:20:00,DRY,3.13,13.03,28.0,775.00,806.1
2019-11-24,12:25:00,DRY,1.70,13.10,29.0,775.00,816.6
2019-11-24,12:30:00,DRY,2.70,12.97,34.3,775.00,816.4
2019-11-24,12:35:00,DRY,1.60,13.20,30.5,775.00,825.2
2019-11-24,12:40:00,DRY,1.60,13.60,33.3,775.00,825.7
2019-11-24,12:45:00,DRY,2.35,13.70,27.5,775.00,829.0
2019-11-24,12:50:00,DRY,1.77,13.80,29.0,775.00,830.6
2019-11-24,12:55:00,DRY,1.80,13.55,31.5,774.50,799.2
2019-11-24,13:00:00,DRY,2.03,13.47,34.3,774.00,828.5
2019-11-24,13:05:00,DRY,2.25,13.45,34.5,774.00,828.4
2019-11-24,13:10:00,DRY,2.73,13.37,34.7,774.00,823.3
2019-11-24,13:15:00,DRY,2.05,13.70,29.5,774.50,779.9
2019-11-24,13:20:00,DRY,4.27,13.20,27.3,774.33,810.4
2019-11-24,13:25:00,DRY,1.75,13.85,27.5,775.00,828.8
2019-11-24,13:30:00,DRY,2.80,13.60,24.0,774.00,817.9
2019-11-24,13:35:00,DRY,2.90,13.20,22.0,774.00,731.4
2019-11-24,13:40:00,DRY,3.13,12.37,23.3,774.33,736.7
2019-11-24,13:45:00,DRY,2.75,12.55,25.5,774.00,781.0
2019-11-24,13:50:00,DRY,1.00,13.23,25.3,774.00,751.8
2019-11-24,13:55:00,DRY,1.05,14.15,26.0,774.00,741.0
2019-11-24,14:00:00,DRY,1.73,13.87,24.0,774.00,732.9
2019-11-24,14:05:00,DRY,2.25,13.65,25.0,774.00,669.2
2019-11-24,14:10:00,DRY,2.50,13.43,28.7,774.00,648.0
2019-11-24,14:15:00,DRY,1.55,13.50,30.0,774.00,617.6
2019-11-24,14:20:00,DRY,1.03,13.57,32.7,774.00,592.6
2019-11-24,14:25:00,DRY,2.15,13.60,30.5,774.00,609.5
2019-11-24,14:30:00,DRY,1.73,13.53,30.7,774.00,619.4
2019-11-24,14:35:00,DRY,1.60,13.15,30.5,774.00,664.8
2019-11-24,14:40:00,DRY,2.07,13.00,30.3,774.00,691.5
2019-11-24,14:45:00,DRY,1.20,13.00,27.5,774.00,727.9
2019-11-24,14:50:00,DRY,1.70,13.50,18.7,774.00,715.0
2019-11-24,14:55:00,DRY,3.00,13.05,26.0,774.00,606.3
2019-11-24,15:00:00,DRY,2.40,12.67,26.7,774.00,523.0
2019-11-24,15:05:00,DRY,2.65,13.00,20.5,774.00,483.9
2019-11-24,15:10:00,DRY,3.00,12.80,24.7,774.00,468.5
2019-11-24,15:15:00,DRY,2.85,12.75,26.5,774.00,458.8
2019-11-24,15:20:00,DRY,3.07,12.90,20.7,774.00,435.5
2019-11-24,15:25:00,DRY,3.35,12.60,17.5,774.00,401.6
2019-11-24,15:30:00,DRY,4.13,12.47,19.0,774.00,456.6
2019-11-24,15:35:00,DRY,3.70,12.45,19.5,774.00,514.9
2019-11-24,15:40:00,DRY,3.47,12.43,17.7,774.00,468.2
2019-11-24,15:45:00,DRY,2.15,12.45,17.0,774.00,465.6
2019-11-24,15:50:00,DRY,2.47,12.37,19.3,774.00,369.0
2019-11-24,15:55:00,DRY,1.65,12.25,22.5,774.00,377.5
2019-11-24,16:00:00,DRY,0.90,12.47,16.0,774.00,387.9
2019-11-24,16:05:00,DRY,1.35,12.75,14.5,774.00,452.8
2019-11-24,16:10:00,DRY,1.83,12.87,19.7,774.00,474.0
2019-11-24,16:15:00,DRY,1.80,13.00,20.0,774.00,472.1
2019-11-24,16:20:00,DRY,2.30,13.23,15.0,774.00,475.1
2019-11-24,16:25:00,DRY,2.80,13.40,15.5,774.00,439.9
2019-11-24,16:30:00,DRY,1.97,13.27,16.7,774.00,287.0
2019-11-24,16:35:00,DRY,2.65,12.95,19.5,774.00,362.4
2019-11-24,16:40:00,DRY,1.90,12.67,23.7,774.00,276.8
2019-11-24,16:45:00,DRY,2.70,12.30,23.0,774.00,241.4
2019-11-24,16:50:00,DRY,2.33,12.37,19.3,774.00,225.1
2019-11-24,16:55:00,DRY,2.10,12.50,20.0,774.00,181.6
2019-11-24,17:00:00,DRY,2.63,12.10,25.7,774.00,194.9
2019-11-24,17:05:00,DRY,2.50,11.90,26.5,774.00,191.6
2019-11-24,17:10:00,DRY,1.80,11.57,26.0,774.00,193.6
2019-11-24,17:15:00,DRY,1.85,11.55,18.0,774.00,150.3
2019-11-24,17:20:00,DRY,1.67,11.90,13.0,774.00,168.3
2019-11-24,17:25:00,DRY,1.85,12.05,16.5,774.00,108.8
2019-11-24,17:30:00,DRY,1.33,12.20,10.0,774.00,79.2
2019-11-24,17:35:00,DRY,2.30,12.05,13.0,774.00,55.5
2019-11-24,17:40:00,DRY,1.83,12.37,6.0,774.00,46.9
2019-11-24,17:45:00,DRY,2.10,12.40,5.0,774.00,39.1
2019-11-24,17:50:00,DRY,1.83,12.70,4.3,774.00,33.7
2019-11-24,17:55:00,DRY,1.90,13.15,3.5,774.00,27.6
2019-11-24,18:00:00,DRY,1.27,13.07,3.7,774.00,25.7
2019-11-24,18:05:00,DRY,2.10,12.65,7.0,774.00,16.5
2019-11-24,18:10:00,DRY,2.60,11.97,8.7,774.00,9.0
2019-11-24,18:15:00,DRY,1.70,12.80,5.0,774.00,4.8
2019-11-24,18:20:00,DRY,2.33,13.30,4.3,774.00,3.6
2019-11-24,18:25:00,DRY,2.10,13.00,5.0,774.00,2.3
2019-11-24,18:30:00,DRY,0.67,11.87,12.0,774.00,1.2
2019-11-24,18:35:00,DRY,0.60,11.65,12.0,774.00,0.3
2019-11-24,18:40:00,DRY,1.37,12.20,6.0,774.00,1.2
2019-11-24,18:45:00,DRY,1.70,12.60,4.0,774.00,1.6
2019-11-24,18:50:00,DRY,1.77,12.67,3.7,774.00,2.3
2019-11-24,18:55:00,DRY,1.40,12.40,3.5,774.00,1.1
2019-11-24,19:00:00,DRY,1.50,12.63,3.0,774.00,1.0
2019-11-24,19:05:00,DRY,1.25,12.65,3.0,774.00,2.0
2019-11-24,19:10:00,DRY,1.30,12.30,3.3,774.00,0.9
2019-11-24,19:15:00,DRY,1.85,12.50,3.0,775.00,1.5
2019-11-24,19:20:00,DRY,1.97,12.17,3.7,774.33,1.6
2019-11-24,19:25:00,DRY,2.20,12.30,3.5,775.00,1.8
2019-11-24,19:30:00,DRY,2.23,11.87,4.0,775.00,1.4
2019-11-24,19:35:00,DRY,2.45,11.85,3.5,775.00,2.1
2019-11-24,19:40:00,DRY,1.70,11.97,4.0,775.00,1.4
2019-11-24,19:45:00,DRY,1.60,11.50,4.0,775.00,0.8
2019-11-24,19:50:00,DRY,1.27,11.57,4.0,775.00,1.7
2019-11-24,19:55:00,DRY,1.40,11.65,4.0,775.00,1.4
2019-11-24,20:00:00,DRY,1.73,12.10,3.0,775.00,1.2
2019-11-24,20:05:00,DRY,2.55,12.15,3.5,775.00,0.7
2019-11-24,20:10:00,DRY,2.10,12.07,3.7,775.00,1.7
2019-11-24,20:15:00,DRY,1.85,11.95,3.5,775.00,1.0
2019-11-24,20:20:00,DRY,1.73,11.90,4.0,775.00,1.6
2019-11-24,20:25:00,DRY,2.40,11.70,4.0,775.00,2.0
2019-11-24,20:30:00,DRY,2.30,11.80,4.0,775.00,1.2
2019-11-24,20:35:00,DRY,2.20,11.60,4.5,775.00,0.7
2019-11-24,20:40:00,DRY,3.00,10.97,5.0,775.00,1.4
2019-11-24,20:45:00,DRY,2.85,9.90,7.0,775.00,1.4
2019-11-24,20:50:00,DRY,2.83,9.97,6.7,775.00,0.9
2019-11-24,20:55:00,DRY,2.80,10.05,9.5,775.00,1.0
2019-11-24,21:00:00,DRY,2.60,10.10,6.3,775.00,1.2
2019-11-24,21:05:00,DRY,2.55,10.20,6.0,775.00,1.4
2019-11-24,21:10:00,DRY,2.43,10.30,6.0,775.00,1.2
2019-11-24,21:15:00,DRY,3.20,10.00,6.0,775.00,0.7
2019-11-24,21:20:00,DRY,3.07,9.93,6.3,775.00,1.1
2019-11-24,21:25:00,DRY,2.85,10.10,6.0,775.00,1.4
2019-11-24,21:30:00,DRY,3.20,10.17,6.0,775.00,1.1
2019-11-24,21:35:00,DRY,2.35,10.25,6.0,775.00,1.6
2019-11-24,21:40:00,DRY,2.80,11.03,3.3,775.00,1.1
2019-11-24,21:45:00,DRY,3.00,11.55,3.5,775.00,1.0
2019-11-24,21:50:00,DRY,2.30,11.60,3.0,775.00,1.8
2019-11-24,21:55:00,DRY,3.20,11.60,3.5,775.00,1.6
2019-11-24,22:00:00,DRY,2.37,11.40,3.7,775.00,1.3
2019-11-24,22:05:00,DRY,2.30,11.50,3.0,775.00,0.8
2019-11-24,22:10:00,DRY,2.47,11.87,2.3,775.00,1.6
2019-11-24,22:15:00,DRY,1.55,12.25,2.0,775.00,1.2
2019-11-24,22:20:00,DRY,1.73,11.80,2.7,775.00,1.5
2019-11-24,22:25:00,DRY,2.40,11.80,3.0,775.00,1.8
2019-11-24,22:30:00,DRY,2.37,11.47,3.0,775.00,0.6
2019-11-24,22:35:00,DRY,3.05,11.25,4.0,775.00,1.4
2019-11-24,22:40:00,DRY,3.03,11.27,3.7,775.00,1.0
2019-11-24,22:45:00,DRY,2.15,11.20,4.0,775.00,1.2
2019-11-24,22:50:00,DRY,2.70,11.30,3.3,775.00,1.1
2019-11-24,22:55:00,DRY,3.20,11.55,3.0,775.00,1.7
2019-11-24,23:00:00,DRY,3.40,11.43,3.0,775.00,1.4
2019-11-24,23:05:00,DRY,3.35,11.50,3.0,775.00,1.1
2019-11-24,23:10:00,DRY,4.20,11.30,3.7,775.00,1.2
2019-11-24,23:15:00,DRY,3.60,11.10,4.0,775.00,1.2
2019-11-24,23:20:00,DRY,4.00,11.00,4.0,775.00,1.3
2019-11-24,23:25:00,DRY,3.20,10.90,4.0,775.00,1.3
2019-11-24,23:30:00,DRY,2.87,10.97,3.7,775.00,1.1
2019-11-24,23:35:00,DRY,2.95,11.30,2.5,775.00,0.9
2019-11-24,23:40:00,DRY,4.10,11.63,2.7,775.00,1.2
2019-11-24,23:45:00,DRY,1.60,11.75,2.0,775.00,1.9
2019-11-24,23:50:00,DRY,1.37,11.63,2.3,775.00,1.2
2019-11-24,23:55:00,DRY,1.70,11.45,2.0,775.00,1.5
2019-11-25,00:00:00,DRY,3.13,11.77,2.0,775.00,0.9
2019-11-25,00:05:00,DRY,2.70,12.20,1.5,775.00,2.1
2019-11-25,00:10:00,DRY,2.97,12.27,1.7,775.00,0.6
2019-11-25,00:15:00,DRY,3.00,12.15,1.5,775.00,0.9
2019-11-25,00:20:00,DRY,3.10,12.20,2.0,775.00,0.8
2019-11-25,00:25:00,DRY,4.40,12.35,1.0,775.00,1.4
2019-11-25,00:30:00,DRY,4.33,12.53,1.0,775.00,1.7
2019-11-25,00:35:00,DRY,4.05,12.50,1.5,775.00,1.0
2019-11-25,00:40:00,DRY,3.43,12.27,2.0,775.00,1.3
2019-11-25,00:45:00,DRY,2.85,11.95,2.0,775.00,1.1
2019-11-25,00:50:00,DRY,2.07,12.03,2.0,775.00,1.6
2019-11-25,00:55:00,DRY,2.55,12.00,2.0,775.00,1.7
2019-11-25,01:00:00,DRY,3.13,12.10,2.0,775.00,1.0
2019-11-25,01:05:00,DRY,3.70,12.15,2.5,775.00,1.4
2019-11-25,01:10:00,DRY,3.17,12.10,2.7,775.00,1.4
2019-11-25,01:15:00,DRY,3.95,12.30,3.0,775.00,1.4
2019-11-25,01:20:00,DRY,3.70,12.57,2.3,775.00,0.9
2019-11-25,01:25:00,DRY,3.40,12.30,3.0,775.00,1.2
2019-11-25,01:30:00,DRY,4.10,12.53,2.7,775.00,1.1
2019-11-25,01:35:00,DRY,4.50,12.75,2.0,775.00,1.0
2019-11-25,01:40:00,DRY,3.23,12.63,2.3,775.00,1.1
2019-11-25,01:45:00,DRY,2.45,12.55,3.0,775.00,2.5
2019-11-25,01:50:00,DRY,3.87,12.60,2.7,775.00,0.8
2019-11-25,01:55:00,DRY,4.00,12.90,2.0,775.00,2.1
2019-11-25,02:00:00,DRY,3.43,12.87,2.0,775.00,1.6
2019-11-25,02:05:00,DRY,4.15,12.75,2.5,775.00,0.8
2019-11-25,02:10:00,DRY,4.37,12.87,3.0,775.00,1.4
2019-11-25,02:15:00,DRY,3.50,12.90,2.5,775.00,1.2
2019-11-25,02:20:00,DRY,3.27,13.03,2.0,774.67,0.9
2019-11-25,02:25:00,DRY,2.45,13.10,2.0,774.00,0.6
2019-11-25,02:30:00,DRY,2.13,13.13,2.0,774.00,1.1
2019-11-25,02:35:00,DRY,2.00,12.60,2.5,774.00,0.8
2019-11-25,02:40:00,DRY,2.07,12.23,2.7,774.00,0.6
2019-11-25,02:45:00,DRY,2.60,12.50,2.0,774.00,1.1
2019-11-25,02:50:00,DRY,2.33,12.77,2.3,774.00,1.3
2019-11-25,02:55:00,DRY,2.60,12.45,2.0,774.00,1.3
2019-11-25,03:00:00,DRY,2.07,12.40,2.3,774.00,0.6
2019-11-25,03:05:00,DRY,2.50,12.85,2.5,774.00,1.4
2019-11-25,03:10:00,DRY,3.60,12.67,2.0,774.00,1.2
2019-11-25,03:15:00,DRY,3.00,13.00,2.5,774.00,1.3
2019-11-25,03:20:00,DRY,2.83,12.80,2.7,774.00,1.0
2019-11-25,03:25:00,DRY,3.00,12.70,3.0,774.00,0.9
2019-11-25,03:30:00,DRY,3.90,12.67,2.7,774.00,1.0
2019-11-25,03:35:00,DRY,3.25,12.75,3.0,774.00,1.1
2019-11-25,03:40:00,DRY,2.90,12.77,3.0,774.00,0.9
2019-11-25,03:45:00,DRY,3.25,12.90,3.0,774.00,1.2
2019-11-25,03:50:00,DRY,2.77,13.40,3.3,774.00,1.2
2019-11-25,03:55:00,DRY,3.80,13.50,3.0,774.00,0.9
2019-11-25,04:00:00,DRY,2.30,13.30,3.7,774.00,1.4
2019-11-25,04:05:00,DRY,2.15,12.95,4.0,774.00,0.8
2019-11-25,04:10:00,DRY,2.53,12.97,4.0,774.00,1.3
2019-11-25,04:15:00,DRY,2.75,13.05,4.0,774.00,1.8
2019-11-25,04:20:00,DRY,1.93,12.87,4.0,774.00,0.7
2019-11-25,04:25:00,DRY,3.35,13.35,4.0,774.00,1.4
2019-11-25,04:30:00,DRY,2.50,13.30,4.0,774.00,1.6
2019-11-25,04:35:00,DRY,2.55,13.00,4.0,774.00,1.6
2019-11-25,04:40:00,DRY,2.70,13.10,4.0,774.00,1.5
2019-11-25,04:45:00,DRY,3.25,13.00,4.0,774.00,1.1
2019-11-25,04:50:00,DRY,3.17,13.07,4.3,774.00,1.3
2019-11-25,04:55:00,DRY,3.50,13.20,4.0,774.00,1.4
2019-11-25,05:00:00,DRY,3.17,13.27,5.0,774.00,0.9
2019-11-25,05:05:00,DRY,3.45,13.45,5.0,774.00,0.7
2019-11-25,05:10:00,DRY,2.20,13.70,5.0,774.00,1.5
2019-11-25,05:15:00,DRY,2.00,13.60,4.5,774.00,1.2
2019-11-25,05:20:00,DRY,2.27,13.70,4.3,774.00,0.8
2019-11-25,05:25:00,DRY,2.15,13.65,4.0,774.00,0.9
2019-11-25,05:30:00,DRY,3.37,14.00,4.3,774.00,1.3
2019-11-25,05:35:00,DRY,2.40,13.95,4.5,774.00,2.0
2019-11-25,05:40:00,DRY,1.33,13.33,5.0,774.00,1.1
2019-11-25,05:45:00,DRY,1.55,13.10,4.5,774.00,1.2
2019-11-25,05:50:00,DRY,3.03,13.87,4.0,774.00,1.4
2019-11-25,05:55:00,DRY,2.10,13.80,4.0,774.00,1.2
2019-11-25,06:00:00,DRY,2.37,13.80,4.3,774.00,1.3
2019-11-25,06:05:00,DRY,3.00,14.05,4.0,774.00,0.8
2019-11-25,06:10:00,DRY,2.17,13.87,4.3,774.00,1.6
2019-11-25,06:15:00,DRY,2.35,13.80,4.0,774.00,1.1
2019-11-25,06:20:00,DRY,2.47,13.40,4.7,774.00,1.2
2019-11-25,06:25:00,DRY,2.00,13.30,5.0,774.00,0.7
2019-11-25,06:30:00,DRY,3.13,13.47,5.0,774.00,1.4
2019-11-25,06:35:00,DRY,3.10,13.75,4.0,774.00,1.2
2019-11-25,06:40:00,DRY,2.13,13.73,4.0,774.00,2.1
2019-11-25,06:45:00,DRY,2.35,13.35,4.0,774.00,0.9
2019-11-25,06:50:00,DRY,1.97,13.50,4.3,774.00,1.0
2019-11-25,06:55:00,DRY,2.10,13.35,5.0,774.00,1.7
2019-11-25,07:00:00,DRY,2.13,13.37,5.0,774.00,1.6
2019-11-25,07:05:00,DRY,3.20,13.60,4.5,774.00,1.1
2019-11-25,07:10:00,DRY,2.53,13.57,4.7,774.00,1.2
2019-11-25,07:15:00,DRY,3.60,13.50,5.0,774.00,0.6
2019-11-25,07:20:00,DRY,3.70,13.47,4.3,774.00,1.6
2019-11-25,07:25:00,DRY,3.15,13.30,4.5,774.00,1.8
2019-11-25,07:30:00,DRY,3.63,13.20,4.7,774.00,2.8
2019-11-25,07:35:00,DRY,3.65,13.35,5.0,774.00,5.0
2019-11-25,07:40:00,DRY,3.27,13.37,4.7,774.00,6.0
2019-11-25,07:45:00,DRY,4.05,13.35,4.0,774.00,8.9
2019-11-25,07:50:00,DRY,3.67,13.37,4.0,774.33,12.3
2019-11-25,07:55:00,DRY,3.30,13.40,4.0,774.50,15.3
2019-11-25,08:00:00,DRY,3.43,13.37,4.0,775.00,18.5
2019-11-25,08:05:00,DRY,2.55,13.45,4.0,775.00,22.1
2019-11-25,08:10:00,DRY,2.87,13.33,4.0,775.00,23.5
2019-11-25,08:15:00,DRY,2.80,13.05,4.5,775.00,27.1
2019-11-25,08:20:00,DRY,3.53,13.23,4.0,775.00,67.3
2019-11-25,08:25:00,DRY,3.80,13.15,4.5,775.00,172.0
2019-11-25,08:30:00,DRY,2.23,13.30,4.3,775.00,190.5
2019-11-25,08:35:00,DRY,2.85,13.50,4.0,775.00,207.5
2019-11-25,08:40:00,DRY,1.93,13.53,5.0,775.00,232.4
2019-11-25,08:45:00,DRY,2.70,13.80,4.5,775.00,251.7
2019-11-25,08:50:00,DRY,2.93,13.97,4.7,775.00,271.5
2019-11-25,08:55:00,DRY,2.25,14.05,4.5,775.00,291.3
2019-11-25,09:00:00,DRY,3.03,13.93,4.7,775.00,310.0
2019-11-25,09:05:00,DRY,2.50,13.90,5.0,775.00,329.6
2019-11-25,09:10:00,DRY,1.37,14.10,4.7,775.00,349.0
2019-11-25,09:15:00,DRY,1.40,14.50,4.5,775.00,361.1
2019-11-25,09:20:00,DRY,1.03,14.37,5.0,775.00,377.1
2019-11-25,09:25:00,DRY,1.95,14.15,5.0,775.00,394.3
2019-11-25,09:30:00,DRY,2.87,14.13,5.0,775.00,417.5
2019-11-25,09:35:00,DRY,2.25,14.30,4.5,775.00,426.2
2019-11-25,09:40:00,DRY,3.67,14.40,4.7,775.00,456.5
2019-11-25,09:45:00,DRY,3.55,14.35,4.5,775.00,478.1
2019-11-25,09:50:00,DRY,2.17,14.40,4.7,775.00,497.9
2019-11-25,09:55:00,DRY,1.85,14.55,5.5,775.00,500.9
2019-11-25,10:00:00,DRY,2.83,14.50,5.0,775.00,531.7
2019-11-25,10:05:00,DRY,2.30,14.55,5.0,775.00,552.2
2019-11-25,10:10:00,DRY,1.80,14.77,5.0,775.00,573.5
2019-11-25,10:15:00,DRY,3.65,14.80,5.0,775.00,596.2
2019-11-25,10:20:00,DRY,2.10,14.93,5.0,775.00,608.9
2019-11-25,10:25:00,DRY,2.80,14.85,5.5,775.00,643.0
2019-11-25,10:30:00,DRY,1.87,14.97,6.0,775.00,621.4
2019-11-25,10:35:00,DRY,1.30,15.25,6.0,775.00,651.1
2019-11-25,10:40:00,DRY,2.97,15.30,5.3,775.00,615.9
2019-11-25,10:45:00,DRY,0.35,15.25,6.0,775.00,627.6
2019-11-25,10:50:00,DRY,1.33,15.40,6.7,775.00,566.5
2019-11-25,10:55:00,DRY,1.40,15.20,5.5,775.00,568.8
2019-11-25,11:00:00,DRY,1.17,15.33,5.7,775.00,533.3
2019-11-25,11:05:00,DRY,0.70,15.65,6.0,775.00,533.0
2019-11-25,11:10:00,DRY,0.97,15.97,5.7,775.00,517.5
2019-11-25,11:15:00,DRY,1.20,15.60,5.5,775.00,465.3
2019-11-25,11:20:00,DRY,1.53,15.43,6.0,775.33,460.8
2019-11-25,11:25:00,DRY,1.20,15.00,6.5,775.50,456.2
2019-11-25,11:30:00,DRY,1.40,15.37,6.3,775.67,487.7
2019-11-25,11:35:00,DRY,0.70,15.60,6.5,776.00,649.0
2019-11-25,11:40:00,DRY,1.70,15.53,6.7,776.00,613.8
2019-11-25,11:45:00,DRY,0.60,15.65,7.0,775.50,727.8
2019-11-25,11:50:00,DRY,2.27,15.77,7.3,775.33,799.8
2019-11-25,11:55:00,DRY,2.80,15.80,6.5,775.00,709.1
2019-11-25,12:00:00,DRY,2.13,15.70,6.3,775.00,671.2
2019-11-25,12:05:00,DRY,1.15,15.80,8.0,775.00,586.3
2019-11-25,12:10:00,DRY,1.30,15.83,7.3,775.00,647.8
2019-11-25,12:15:00,DRY,1.65,15.95,7.0,775.00,634.5
2019-11-25,12:20:00,DRY,1.17,16.13,7.3,775.00,582.7
2019-11-25,12:25:00,DRY,1.00,15.95,7.0,775.00,506.1
2019-11-25,12:30:00,DRY,2.07,15.63,6.3,775.00,523.3
2019-11-25,12:35:00,DRY,1.25,15.65,6.5,775.00,467.5
2019-11-25,12:40:00,DRY,1.33,15.50,6.3,775.00,422.2
2019-11-25,12:45:00,DRY,0.85,15.55,6.5,775.00,409.9
2019-11-25,12:50:00,DRY,0.93,15.40,7.3,775.00,374.6
2019-11-25,12:55:00,DRY,1.00,15.35,8.0,775.00,369.2
2019-11-25,13:00:00,DRY,1.60,15.13,6.7,775.00,365.7
2019-11-25,13:05:00,DRY,1.10,15.25,7.0,775.00,371.8
2019-11-25,13:10:00,DRY,1.13,15.23,7.0,775.00,414.3
2019-11-25,13:15:00,DRY,0.85,15.15,5.5,775.00,462.2
2019-11-25,13:20:00,DRY,0.63,15.10,7.3,775.00,465.5
2019-11-25,13:25:00,DRY,1.00,15.40,7.0,775.00,756.8
2019-11-25,13:30:00,DRY,1.60,15.80,9.0,775.00,1164.6
2019-11-25,13:35:00,DRY,1.30,16.40,8.0,775.00,1091.0
2019-11-25,13:40:00,DRY,1.13,16.67,7.0,774.67,1062.8
2019-11-25,13:45:00,DRY,1.35,17.25,7.0,774.00,1007.1
2019-11-25,13:50:00,DRY,1.10,16.47,6.7,774.00,867.6
2019-11-25,13:55:00,DRY,1.30,15.90,5.0,774.00,662.5
2019-11-25,14:00:00,DRY,0.93,15.33,5.7,774.00,627.5
2019-11-25,14:05:00,DRY,1.70,16.00,6.0,774.00,837.5
2019-11-25,14:10:00,DRY,2.33,15.97,6.3,774.00,732.0
2019-11-25,14:15:00,DRY,1.45,15.95,6.0,774.00,729.3
2019-11-25,14:20:00,DRY,0.97,16.13,6.7,774.00,568.3
2019-11-25,14:25:00,DRY,1.65,16.05,5.5,774.00,574.5
2019-11-25,14:30:00,DRY,1.47,16.00,6.3,774.00,636.3
2019-11-25,14:35:00,DRY,1.65,16.10,6.0,774.00,479.8
2019-11-25,14:40:00,DRY,0.73,15.83,7.0,774.00,395.4
2019-11-25,14:45:00,DRY,1.20,15.90,7.0,774.00,331.6
2019-11-25,14:50:00,DRY,1.03,15.80,6.3,774.00,296.1
2019-11-25,14:55:00,DRY,1.60,15.70,6.5,774.00,287.9
2019-11-25,15:00:00,DRY,1.20,15.50,6.0,774.00,282.9
2019-11-25,15:05:00,DRY,1.00,15.05,8.0,774.00,283.5
2019-11-25,15:10:00,DRY,0.50,15.03,9.3,774.00,285.0
2019-11-25,15:15:00,DRY,1.25,15.10,8.0,774.00,288.1
2019-11-25,15:20:00,DRY,1.03,14.93,6.7,774.00,290.4
2019-11-25,15:25:00,DRY,1.60,14.95,7.0,774.00,289.8
2019-11-25,15:30:00,DRY,0.70,15.03,6.3,774.00,280.6
2019-11-25,15:35:00,DRY,0.85,14.95,6.5,774.00,271.6
2019-11-25,15:40:00,DRY,0.60,14.63,6.3,774.00,260.0
2019-11-25,15:45:00,DRY,0.45,14.75,6.0,774.00,245.8
2019-11-25,15:50:00,DRY,0.60,14.77,6.7,774.00,227.1
2019-11-25,15:55:00,DRY,0.90,14.90,9.5,774.00,213.4
2019-11-25,16:00:00,DRY,0.80,14.53,8.0,774.00,207.9
2019-11-25,16:05:00,DRY,1.15,14.40,6.0,774.00,202.1
2019-11-25,16:10:00,DRY,0.97,14.10,6.7,774.00,197.5
2019-11-25,16:15:00,DRY,0.80,14.35,6.5,774.00,191.1
2019-11-25,16:20:00,DRY,0.77,14.03,6.3,774.00,186.7
2019-11-25,16:25:00,DRY,0.55,13.70,6.5,774.00,179.8
2019-11-25,16:30:00,DRY,0.63,13.83,7.3,774.00,173.4
2019-11-25,16:35:00,DRY,0.70,13.70,8.5,774.00,166.8
2019-11-25,16:40:00,DRY,0.83,13.77,7.0,774.00,176.1
2019-11-25,16:45:00,DRY,0.65,14.10,5.0,774.00,157.2
2019-11-25,16:50:00,DRY,0.60,14.20,5.0,774.00,170.3
2019-11-25,16:55:00,DRY,1.35,14.15,5.0,774.00,153.9
2019-11-25,17:00:00,DRY,1.47,14.00,4.3,774.00,151.1
2019-11-25,17:05:00,DRY,0.90,13.90,5.0,774.00,145.4